CW1675 Weather Reports


Display with metric or nautical units.
time (UTC)temp
F
wind
direction
speed
MPH
gust
MPH
rain 1hr
in
rain 24hr
in
rain mn
in
humidity
%
barometer
mb
20240622102758 61 288 5.0 9.0 0.00 0.00 0.00 79 1015.2
20240622102257 61 238 5.0 12.0 0.00 0.00 0.00 80 1015.2
20240622101757 61 240 5.0 9.0 0.00 0.00 0.00 80 1015.1
20240622100758 62 238 5.0 8.0 0.00 0.00 0.00 78 1015.1
20240622100257 61 284 5.0 10.0 0.00 0.00 0.00 80 1015.1
20240622095758 62 254 5.0 13.0 0.00 0.00 0.00 78 1015.1
20240622094258 61 232 6.0 9.0 0.00 0.00 0.00 84 1015.2
20240622093757 60 216 5.0 9.0 0.00 0.00 0.00 84 1015.2
20240622093258 60 239 5.0 12.0 0.00 0.00 0.00 82 1015.0
20240622092258 60 236 6.0 9.0 0.00 0.00 0.00 85 1015.0
20240622091257 60 236 6.0 10.0 0.00 0.00 0.00 84 1015.0
20240622090757 60 236 4.0 8.0 0.00 0.00 0.00 86 1015.0
20240622085257 59 233 2.0 8.0 0.00 0.00 0.00 90 1015.1
20240622083756 59 256 2.0 6.0 0.00 0.00 0.00 91 1015.0
20240622082758 58 240 2.0 5.0 0.00 0.00 0.00 92 1014.9
20240622082257 57 234 2.0 5.0 0.00 0.00 0.00 90 1014.9
20240622081801 57 307 2.0 6.0 0.00 0.00 0.00 89 1015.0
20240622080258 57 248 5.0 6.0 0.00 0.00 0.00 91 1014.9
20240622075758 58 239 4.0 8.0 0.00 0.00 0.00 90 1014.9
20240622073757 57 232 3.0 7.0 0.00 0.00 0.00 93 1014.9
20240622072257 57 280 5.0 6.0 0.00 0.00 0.00 91 1014.9
20240622071757 57 244 3.0 9.0 0.00 0.00 0.00 91 1014.8
20240622071257 58 293 3.0 6.0 0.00 0.00 0.00 93 1014.8
20240622064757 58 242 2.0 6.0 0.00 0.00 0.00 95 1014.7
20240622063257 57 328 2.0 3.0 0.00 0.00 0.00 96 1014.5
20240622062759 57 328 1.0 2.0 0.00 0.00 0.00 96 1014.5
20240622062257 57 328 0.0 5.0 0.00 0.00 0.00 96 1014.5
20240622061258 58 329 2.0 2.0 0.00 0.00 0.00 97 1014.4
20240622060757 58 328 1.0 3.0 0.00 0.00 0.00 98 1014.4
20240622060257 58 328 1.0 5.0 0.00 0.00 0.00 98 1014.3
20240622055757 58 328 1.0 5.0 0.00 0.00 0.00 98 1014.3
20240622055305 58 3 0.0 2.0 0.00 0.00 0.00 98 1014.3
20240622054757 57 4 0.0 0.0 0.00 0.00 0.00 98 1014.1
20240622054257 57 4 0.0 0.0 0.00 0.00 0.00 98 1014.1
20240622053758 57 4 0.0 0.0 0.00 0.00 0.00 98 1014.1
20240622052257 57 4 0.0 0.0 0.00 0.00 0.00 98 1014.1
20240622051257 57 4 0.0 0.0 0.00 0.00 0.00 98 1014.1
20240622050757 57 4 0.0 0.0 0.00 0.00 0.00 98 1014.1
20240622045757 57 4 0.0 0.0 0.00 0.00 0.00 98 1014.0
20240622044757 56 4 0.0 0.0 0.00 0.00 0.00 98 1013.9
20240622041757 56 5 0.0 0.0 0.00 0.00 0.00 97 1013.8
20240622041257 56 5 0.0 0.0 0.00 0.00 0.00 97 1013.8
20240622040757 56 3 0.0 0.0 0.00 0.00 0.00 97 1013.8
20240622040257 56 3 0.0 2.0 0.00 0.00 0.00 97 1013.9
20240622035257 56 23 2.0 1.0 0.00 0.00 0.00 97 1013.9
20240622033258 55 340 0.0 5.0 0.00 0.00 0.00 98 1014.1
20240622032256 55 31 0.0 3.0 0.00 0.00 0.00 97 1014.1
20240622031757 55 31 0.0 2.0 0.00 0.00 0.00 97 1014.1
20240622031257 55 31 0.0 2.0 0.00 0.00 0.00 97 1014.1
20240622030757 55 10 0.0 0.0 0.00 0.00 0.00 96 1014.1
20240622030257 55 6 0.0 0.0 0.00 0.00 0.00 96 1014.0
20240622025757 55 6 0.0 2.0 0.00 0.00 0.00 96 1014.0
20240622024757 55 15 0.0 0.0 0.00 0.00 0.00 95 1014.1
20240622024257 55 14 0.0 0.0 0.00 0.00 0.00 96 1014.1
20240622023257 55 15 0.0 0.0 0.00 0.00 0.00 95 1014.1
20240622022758 56 15 1.0 0.0 0.00 0.00 0.00 95 1014.1
20240622022257 56 344 2.0 1.0 0.00 0.00 0.00 96 1014.1
20240622021757 56 339 1.0 2.0 0.00 0.00 0.00 96 1014.1
20240622021257 56 10 1.0 6.0 0.00 0.00 0.00 96 1014.1
20240622015757 56 46 2.0 5.0 0.00 0.00 0.00 95 1014.4
20240622015257 56 43 2.0 13.0 0.00 0.00 0.00 95 1014.4
20240622014757 56 344 1.0 5.0 0.00 0.00 0.00 95 1014.7
20240622013257 56 27 0.0 0.0 0.00 0.00 0.00 94 1014.8
20240622012757 56 27 0.0 3.0 0.00 0.00 0.00 93 1014.8
20240622012257 56 27 0.0 2.0 0.00 0.00 0.00 93 1014.8
20240622011257 56 27 2.0 2.0 0.00 0.00 0.00 93 1014.9
20240622010257 56 314 2.0 6.0 0.00 0.00 0.00 94 1014.9
20240622005257 56 259 0.0 5.0 0.00 0.00 0.00 95 1014.9
20240622004757 56 332 1.0 2.0 0.00 0.00 0.00 95 1015.1
20240622003757 55 263 1.0 5.0 0.00 0.00 0.00 95 1015.1
20240622003256 55 326 1.0 3.0 0.00 0.00 0.00 95 1014.9
20240622002256 55 0 1.0 3.0 0.00 0.00 0.00 94 1014.9
20240622001758 55 323 2.0 3.0 0.00 0.00 0.00 93 1014.9
20240621234757 55 323 3.0 8.0 0.00 0.00 0.00 96 1014.8
20240621234257 54 292 3.0 8.0 0.00 0.00 0.00 97 1014.8
20240621233257 53 301 3.0 8.0 0.00 0.00 0.00 98 1015.0
20240621232757 53 306 2.0 5.0 0.00 0.00 0.00 98 1015.0
20240621231756 51 307 1.0 6.0 0.00 0.00 0.00 97 1015.1
20240621225757 52 40 1.0 5.0 0.00 0.00 0.00 96 1015.1
20240621224757 52 66 0.0 2.0 0.00 0.00 0.00 96 1015.1
20240621224258 52 54 0.0 2.0 0.00 0.00 0.00 95 1015.1
20240621223757 52 42 0.0 2.0 0.00 0.00 0.00 95 1015.1
20240621221257 53 60 0.0 5.0 0.00 0.00 0.00 96 1015.2
20240621220257 54 60 1.0 2.0 0.00 0.00 0.00 96 1015.1
20240621215757 54 59 1.0 3.0 0.00 0.00 0.00 96 1015.1
20240621214257 54 58 0.0 2.0 0.00 0.00 0.00 96 1015.3
20240621213757 54 58 0.0 3.0 0.00 0.00 0.00 96 1015.3
20240621212758 54 58 1.0 2.0 0.00 0.00 0.00 95 1015.3
20240621212257 54 59 1.0 2.0 0.00 0.00 0.00 95 1015.3
20240621210757 54 59 2.0 3.0 0.00 0.00 0.00 95 1015.3
20240621210257 54 80 1.0 5.0 0.00 0.00 0.00 95 1015.3
20240621205257 55 45 0.0 5.0 0.00 0.00 0.00 95 1015.3
20240621204757 55 52 1.0 2.0 0.00 0.00 0.00 95 1015.1
20240621203757 55 51 1.0 2.0 0.00 0.00 0.00 95 1015.1
20240621203256 55 52 0.0 3.0 0.00 0.00 0.00 95 1014.9
20240621202256 55 119 1.0 3.0 0.00 0.00 0.00 95 1014.9
20240621200256 55 122 2.0 6.0 0.00 0.00 0.00 94 1014.5
20240621195757 55 125 2.0 5.0 0.00 0.00 0.00 93 1014.5
20240621194257 55 174 0.0 5.0 0.00 0.01 0.00 92 1014.4
20240621193257 55 154 2.0 3.0 0.00 0.01 0.00 92 1014.4
20240621192757 55 166 2.0 7.0 0.00 0.01 0.00 92 1014.4
20240621192257 55 173 1.0 3.0 0.00 0.01 0.00 92 1014.4
20240621191757 55 167 3.0 3.0 0.00 0.01 0.00 93 1014.4
20240621190256 55 220 5.0 6.0 0.00 0.01 0.00 94 1014.4
20240621182756 55 266 6.0 13.0 0.00 0.01 0.00 94 1014.6
20240621180757 57 273 5.0 18.0 0.00 0.01 0.00 95 1014.4
20240621180256 57 239 5.0 16.0 0.00 0.01 0.00 96 1014.1
20240621175757 57 270 5.0 10.0 0.00 0.01 0.00 96 1014.1
20240621173256 57 261 3.0 12.0 0.00 0.01 0.00 95 1014.0
20240621172757 57 241 3.0 6.0 0.00 0.01 0.00 96 1014.0
20240621170757 57 208 7.0 6.0 0.00 0.01 0.00 94 1014.1
20240621170257 57 208 7.0 6.0 0.00 0.01 0.00 94 1013.8
20240621165757 57 228 8.0 17.0 0.00 0.01 0.00 94 1013.8
20240621164257 58 253 7.0 17.0 0.00 0.01 0.00 95 1013.5
20240621163756 59 249 7.0 16.0 0.00 0.01 0.00 95 1013.5
20240621160257 61 275 9.0 16.0 0.00 0.01 0.00 95 1013.0
20240621154257 61 232 5.0 16.0 0.00 0.01 0.00 95 1012.9
20240621153757 61 244 5.0 8.0 0.00 0.01 0.00 96 1012.9
20240621153257 62 274 5.0 12.0 0.00 0.01 0.00 95 1012.7
20240621152757 61 269 5.0 9.0 0.00 0.01 0.00 95 1012.7
20240621150257 62 268 7.0 14.0 0.00 0.01 0.00 94 1012.5
20240621145756 62 270 7.0 12.0 0.00 0.01 0.00 93 1012.5
20240621144257 63 255 7.0 13.0 0.00 0.01 0.00 93 1012.4
20240621143257 63 265 6.0 15.0 0.00 0.01 0.00 93 1012.5
20240621142757 63 256 6.0 15.0 0.00 0.01 0.00 93 1012.5
20240621142257 63 257 7.0 14.0 0.00 0.01 0.00 93 1012.5
20240621141257 64 301 8.0 15.0 0.00 0.01 0.00 92 1012.4
20240621140256 64 279 7.0 16.0 0.00 0.01 0.00 91 1012.3
20240621135757 65 288 7.0 14.0 0.00 0.01 0.00 90 1012.3
20240621134756 65 295 7.0 12.0 0.00 0.01 0.00 91 1012.4
20240621134256 65 274 7.0 13.0 0.00 0.01 0.00 89 1012.4
20240621132756 66 274 7.0 10.0 0.00 0.01 0.00 90 1012.3
20240621130256 66 274 6.0 14.0 0.00 0.01 0.00 91 1012.1
20240621125756 67 267 6.0 14.0 0.00 0.01 0.00 90 1012.1
20240621124257 67 262 2.0 12.0 0.00 0.01 0.00 91 1012.1
20240621123757 68 252 1.0 13.0 0.00 0.01 0.00 95 1012.1
20240621122757 66 12 1.0 2.0 0.00 0.01 0.00 95 1012.3
20240621122256 66 284 2.0 2.0 0.00 0.01 0.00 94 1012.3
20240621121257 66 285 3.0 5.0 0.00 0.01 0.00 93 1012.2
20240621120757 66 319 5.0 3.0 0.00 0.01 0.00 93 1012.2
20240621115256 67 282 8.0 12.0 0.00 0.01 0.00 89 1012.4
20240621114756 67 259 9.0 12.0 0.00 0.01 0.00 87 1012.1
20240621113256 72 275 9.0 21.0 0.00 0.01 0.00 73 1011.6
20240621112757 73 224 10.0 17.0 0.00 0.01 0.00 73 1011.6
20240621111757 72 176 9.0 15.0 0.00 0.01 0.00 76 1012.0
20240621111257 71 182 8.0 18.0 0.00 0.01 0.00 75 1012.0
20240621110757 72 186 9.0 21.0 0.00 0.01 0.00 74 1012.0